Location: Newark
(34.0131°N, 4.3314°W)
Time: 15:59:38
(UTC+00:00)

A-11 Canister half - Pass Details

Date: 23 October 2019
Orbit: 1514 x 1686 km, 47.2° (Epoch: 13 November)

Event Time Altitude Azimuth Distance (km) Brightness Sun altitude
Rises 22:04:25 0° 180° (S) 4,924 - -55.1°
Reaches altitude 10° 22:08:57 10° 163° (SSE) 3,937 - -55.9°
Maximum altitude 22:15:14 19° 124° (SE) 3,288 - -56.9°
Drops below altitude 10° 22:21:27 10° 85° (E) 3,903 - -58.0°
Sets 22:25:50 0° 68° (ENE) 4,868 - -58.7°
